[[{"header":{"parameterUnit":"m.s-1","parameterCategory":1,"la1":30.2991,"la2":30.254,"lo1":-89.0895,"lo2":-89.0444,"dy":0.0017,"dx":0.0017,"nx":28,"ny":28,"refTime":"2023-09-11T21:00:00:Z","depth":0,"parameterNumber":2,"parameterNumberName":"U-component_of_WINDS"},"data":[0,0,0,0,0,0,0,0,0,0,0,0,0,0,0,0,0,0,0,0,0,0,0,0,0,0,0,0,0,0,0,0,0,0,0,0,0,0,0,0,0,0,0,0,0,0,0,0,0,0,0,0,0,0,0,0,0,0,-1.7216,-1.7216,0,-1.7219,-1.7219,-1.7219,-1.716,-1.7158,-1.7156,-1.7155,-1.716,-1.7162,-1.7163,0,0,0,0,0,0,0,0,0,0,0,0,0,-1.7163,-1.7164,-1.7216,-1.7216,-1.7216,-1.7219,-1.7219,-1.7219,-1.716,-1.7158,-1.7156,-1.7154,-1.716,-1.7161,-1.7163,0,0,0,0,0,0,0,0,0,0,0,0,0,-1.7178,-1.7165,-1.7216,-1.7187,-1.7184,-1.7219,-1.7219,-1.7219,-1.716,-1.7158,-1.7155,-1.7153,-1.7159,-1.7161,-1.7164,-1.7227,0,0,-1.7171,-1.7172,0,0,0,0,0,0,0,0,-1.7177,-1.718,-1.7191,-1.7189,-1.7186,-1.7186,-1.7202,-1.7222,-1.7161,-1.7169,-1.7155,-1.7152,-1.7171,-1.7172,-1.7178,-1.7227,-1.7227,-1.7171,-1.7173,-1.7174,-1.7175,0,0,0,0,0,0,0,-1.7176,-1.718,-1.7217,-1.7191,-1.7188,-1.7175,-1.7174,-1.7205,-1.7184,-1.7169,-1.7164,-1.7165,-1.7169,-1.7176,-1.7178,-1.7227,-1.7171,-1.7173,-1.7175,-1.7176,-1.733,-1.7332,0,0,0,0,0,0,-1.7179,-1.7179,-1.7217,-1.7217,-1.7176,-1.7178,-1.7177,-1.7189,-1.7183,-1.718,-1.7167,-1.7162,-1.7173,-1.7175,-1.7178,-1.7251,-1.7174,-1.7176,-1.7178,-1.7327,-1.733,-1.7333,0,0,0,0,0,0,-1.7178,-1.7183,-1.7217,-1.7197,-1.72,-1.7181,-1.7195,-1.719,-1.7197,-1.7182,-1.7178,-1.7178,-1.7171,-1.7174,-1.7215,-1.7251,-1.7177,-1.718,-1.7324,-1.7328,-1.7332,-1.74,0,0,0,0,0,0,-1.7177,-1.7183,-1.7206,-1.7198,-1.7202,-1.7253,-1.7197,-1.7192,-1.7201,-1.7194,-1.7191,-1.7188,-1.7169,-1.7212,-1.7218,-1.7253,-1.7181,-1.7321,-1.7326,-1.7331,-1.7394,-1.7405,-1.7415,0,0,0,0,0,-1.7175,-1.7225,-1.7207,-1.7212,-1.723,-1.7256,-1.7258,-1.7234,-1.7204,-1.7227,-1.7218,-1.7188,-1.7247,-1.7217,-1.7223,-1.7259,-1.7318,-1.7325,-1.733,-1.7389,-1.7403,-1.7415,0,0,0,0,0,0,-1.7237,-1.7223,-1.7203,-1.7252,-1.7255,-1.7245,-1.7274,-1.7249,-1.7262,-1.7256,-1.7227,-1.7227,-1.7273,-1.727,-1.7237,-1.7321,-1.7277,-1.7285,-1.732,-1.7333,-1.7343,-1.7343,-1.7183,0,0,0,0,0,-1.7257,-1.7278,-1.7265,-1.731,-1.7312,-1.7293,-1.7304,-1.7285,-1.7288,-1.7289,-1.7283,-1.7288,-1.7307,-1.732,-1.7337,-1.7394,-1.7393,-1.7423,-1.7433,-1.7442,-1.7448,-1.7479,-1.7492,-1.7353,-1.7353,-1.7352,0,0,-1.7297,-1.7292,-1.7307,-1.7322,-1.7322,-1.7346,-1.7295,-1.7322,-1.7339,-1.7294,-1.7331,-1.7328,-1.7331,-1.738,-1.7402,-1.738,-1.7487,-1.7449,-1.7456,-1.7458,-1.7486,-1.75,-1.7511,-1.7357,-1.7356,-1.7355,0,0,-1.7383,-1.7381,-1.7418,-1.742,-1.7421,-1.7408,-1.7417,-1.7412,-1.7407,-1.7445,-1.7411,-1.7433,-1.7466,-1.747,-1.7476,-1.7566,-1.7539,-1.7573,-1.7627,-1.7657,-1.7668,-1.7678,-1.771,-1.7722,-1.7579,-1.758,-1.758,0,-1.7433,-1.7466,-1.744,-1.7469,-1.7477,-1.7437,-1.7475,-1.7478,-1.7486,-1.7493,-1.7468,-1.751,-1.7509,-1.7559,-1.7581,-1.7588,-1.7598,-1.7572,-1.7669,-1.7678,-1.7687,-1.7717,-1.7729,-1.7583,-1.7583,-1.7583,-1.7582,0,-1.7527,-1.7551,-1.7581,-1.7589,-1.76,-1.7634,-1.7614,-1.7629,-1.7611,-1.7602,-1.7641,-1.764,-1.7656,-1.7667,-1.7649,-1.7715,-1.7701,-1.7673,-1.7629,-1.7704,-1.7732,-1.7743,-1.7589,-1.7588,-1.7587,-1.7586,0,0,-1.765,-1.7644,-1.7655,-1.7659,-1.7658,-1.7677,-1.771,-1.7725,-1.7739,-1.7746,-1.7773,-1.7804,-1.7778,-1.7785,-1.7768,-1.7795,-1.7867,-1.7764,-1.7763,-1.7783,-1.794,-1.796,-1.7974,-1.785,-1.7852,-1.7854,-1.7939,0,-1.7733,-1.7786,-1.7765,-1.7821,-1.7844,-1.7807,-1.7836,-1.784,-1.7833,-1.7851,-1.7844,-1.7866,-1.783,-1.7834,-1.786,-1.7853,-1.7898,-1.7846,-1.7875,-1.7877,-1.7874,-1.7988,-1.801,-1.809,-1.795,-1.7952,-1.7953,0,-1.7835,-1.7846,-1.7905,-1.7901,-1.791,-1.7936,-1.7949,-1.7967,-1.7971,-1.7964,-1.7974,-1.7952,-1.7985,-1.7942,-1.7988,-1.7954,-1.7965,-1.7964,-1.7966,-1.7967,-1.7918,-1.7992,-1.8116,-1.8128,-1.797,-1.7969,-1.7968,0,-1.7918,-1.7948,-1.7987,-1.7991,-1.7988,-1.8007,-1.8007,-1.8009,-1.802,-1.8033,-1.804,-1.8056,-1.8065,-1.8079,-1.8062,-1.8032,-1.8111,-1.8067,-1.8107,-1.8107,-1.8124,-1.8123,-1.8251,-1.8133,-1.8133,-1.8133,-1.8132,0,-1.8012,-1.8049,-1.8024,-1.8048,-1.8089,-1.8065,-1.8107,-1.8103,-1.8106,-1.8129,-1.81,-1.8122,-1.8099,-1.8121,-1.8109,-1.8149,-1.8153,-1.8149,-1.8145,-1.8151,-1.8152,-1.8157,-1.815,-1.8136,-1.8135,-1.8134,-1.8134,0,-1.8111,-1.8096,-1.8135,-1.813,-1.813,-1.816,-1.8156,-1.8179,-1.817,-1.82,-1.8206,-1.8193,-1.8217,-1.8202,-1.8226,-1.8218,-1.8271,-1.8259,-1.8269,-1.8265,-1.8306,-1.8302,-1.8441,-1.8458,-1.833,-1.8332,-1.8333,0,-1.8171,-1.8198,-1.8196,-1.8209,-1.8211,-1.8233,-1.8244,-1.8223,-1.8236,-1.8244,-1.8266,-1.8287,-1.8302,-1.8343,-1.8336,-1.8355,-1.8344,-1.8391,-1.8346,-1.8352,-1.8344,-1.8342,-1.8345,-1.84,-1.8401,-1.8402,-1.8403,0,-1.8279,-1.827,-1.8287,-1.8302,-1.8316,-1.8327,-1.8335,-1.8348,-1.8327,-1.8344,-1.8367,-1.8379,-1.8405,-1.8426,-1.8443,-1.8444,-1.8421,-1.8418,-1.8428,-1.8434,-1.8438,-1.8436,-1.8292,-1.8414,-1.8413,-1.8412,-1.8412,-1.8411,-1.8359,-1.8382,-1.8385,-1.8405,-1.8409,-1.8418,-1.8439,-1.8433,-1.8452,-1.847,-1.8457,-1.8486,-1.8491,-1.8511,-1.8515,-1.8538,-1.8519,-1.8534,-1.8537,-1.8541,-1.8547,-1.8435,-1.8541,-1.8541,-1.8541,-1.854,-1.854,0,-1.8465,-1.8465,-1.8484,-1.8497,-1.8513,-1.849,-1.8499,-1.8514,-1.8539,-1.8545,-1.8562,-1.859,-1.8611,-1.8607,-1.8627,-1.8646,-1.8636,-1.8652,-1.8649,-1.865,-1.8563,-1.8551,-1.866,-1.866,-1.866,-1.866,-1.866,-1.866,-1.8522,-1.856,-1.8552,-1.8593,-1.8593,-1.8619,-1.8626,-1.8635,-1.864,-1.8672,-1.869,-1.8687,-1.869,-1.871,-1.8729,-1.8728,-1.8736,-1.8756,-1.8751,-1.8668,-1.8656,-1.8645,-1.8634,-1.8758,-1.8758,-1.8836,-1.8837,-1.8837]},{"header":{"parameterUnit":"m.s-1","parameterCategory":1,"la1":30.2991,"la2":30.254,"lo1":-89.0895,"lo2":-89.0444,"dy":0.0017,"dx":0.0017,"nx":28,"ny":28,"refTime":"2023-09-11T21:00:00:Z","depth":0,"parameterNumber":3,"parameterNumberName":"V-component_of_WINDS"},"data":[0,0,0,0,0,0,0,0,0,0,0,0,0,0,0,0,0,0,0,0,0,0,0,0,0,0,0,0,0,0,0,0,0,0,0,0,0,0,0,0,0,0,0,0,0,0,0,0,0,0,0,0,0,0,0,0,0,0,2.42,2.4199,0,2.4179,2.4179,2.4178,2.4183,2.4184,2.4184,2.4184,2.4163,2.4162,2.4161,0,0,0,0,0,0,0,0,0,0,0,0,0,2.4242,2.4241,2.42,2.4199,2.4199,2.4179,2.4179,2.4178,2.4183,2.4184,2.4184,2.4185,2.4163,2.4162,2.4161,0,0,0,0,0,0,0,0,0,0,0,0,0,2.4223,2.4241,2.42,2.4199,2.4199,2.4179,2.4179,2.4178,2.4183,2.4184,2.4184,2.4185,2.4163,2.4162,2.4161,2.414,0,0,2.4156,2.4156,0,0,0,0,0,0,0,0,2.4224,2.4221,2.4199,2.4199,2.4199,2.4184,2.4186,2.4165,2.4183,2.4189,2.4184,2.4185,2.4169,2.4168,2.4162,2.4139,2.4138,2.4156,2.4155,2.4155,2.4154,0,0,0,0,0,0,0,2.4225,2.4222,2.4191,2.4199,2.4199,2.4199,2.4197,2.4182,2.4176,2.4189,2.4189,2.4186,2.4169,2.4164,2.4162,2.4138,2.4156,2.4155,2.4154,2.4154,2.4094,2.4094,0,0,0,0,0,0,2.4227,2.4223,2.4192,2.4191,2.4213,2.4198,2.4196,2.4188,2.4176,2.4175,2.4186,2.4187,2.4166,2.4164,2.4161,2.4135,2.4155,2.4153,2.4153,2.4095,2.4094,2.4093,0,0,0,0,0,0,2.4228,2.4224,2.4193,2.4207,2.4203,2.4197,2.4188,2.4188,2.4182,2.4174,2.4173,2.4181,2.4166,2.4163,2.4145,2.4134,2.4153,2.4151,2.4096,2.4095,2.4094,2.4082,0,0,0,0,0,0,2.4229,2.4224,2.4217,2.4207,2.4202,2.4177,2.4188,2.4187,2.4179,2.418,2.417,2.4168,2.4166,2.4147,2.4143,2.4132,2.415,2.4097,2.4095,2.4094,2.4084,2.4081,2.4079,0,0,0,0,0,2.423,2.4215,2.4216,2.4213,2.4193,2.4177,2.4174,2.4172,2.4179,2.4171,2.4165,2.4169,2.4136,2.4145,2.4141,2.4129,2.4097,2.4096,2.4094,2.4085,2.4081,2.4079,0,0,0,0,0,0,2.4224,2.4214,2.4215,2.4196,2.4187,2.4178,2.4167,2.4169,2.4158,2.416,2.4158,2.4155,2.4136,2.4131,2.4141,2.4108,2.4118,2.4115,2.4112,2.4108,2.4106,2.4107,2.4149,0,0,0,0,0,2.422,2.4208,2.42,2.4184,2.4179,2.4174,2.4167,2.4166,2.4157,2.4153,2.4147,2.4137,2.4125,2.4117,2.4105,2.4083,2.408,2.4073,2.4071,2.4069,2.4066,2.4053,2.4049,2.4088,2.4088,2.4088,0,0,2.4213,2.4206,2.4198,2.4182,2.4175,2.4162,2.4171,2.4157,2.4147,2.4151,2.4133,2.4128,2.4117,2.4097,2.4087,2.4092,2.4055,2.4067,2.4065,2.4064,2.405,2.4047,2.4043,2.4087,2.4087,2.4087,0,0,2.4192,2.4186,2.4171,2.4163,2.4152,2.4149,2.4145,2.4135,2.4132,2.4113,2.4116,2.4104,2.4082,2.4074,2.4067,2.4041,2.4043,2.4038,2.4024,2.4011,2.4008,2.4005,2.3994,2.3991,2.4035,2.4035,2.4035,0,2.4184,2.4164,2.4163,2.4148,2.414,2.4143,2.4127,2.412,2.4106,2.41,2.4106,2.4078,2.4071,2.4048,2.4041,2.4036,2.4031,2.4038,2.4009,2.4006,2.4003,2.3993,2.3989,2.4035,2.4035,2.4035,2.4035,0,2.4154,2.414,2.4129,2.4115,2.4106,2.4091,2.4086,2.4077,2.4077,2.4073,2.4053,2.4045,2.4031,2.4025,2.4025,2.4001,2.4004,2.4009,2.4019,2.3999,2.3989,2.3985,2.4034,2.4034,2.4034,2.4034,0,0,2.4128,2.4112,2.4108,2.4101,2.4088,2.4078,2.4062,2.4048,2.4039,2.4029,2.4015,2.3997,2.4001,2.3993,2.3992,2.398,2.3958,2.3987,2.3986,2.398,2.3929,2.3924,2.392,2.396,2.3959,2.3959,2.393,0,2.4105,2.4077,2.4075,2.405,2.4036,2.4038,2.4024,2.4015,2.401,2.3997,2.3992,2.3978,2.3986,2.3981,2.397,2.3963,2.3948,2.3966,2.3946,2.3945,2.3947,2.3915,2.391,2.3883,2.3926,2.3925,2.3925,0,2.4074,2.4062,2.4036,2.4023,2.4018,2.4005,2.3991,2.3979,2.3968,2.3965,2.3956,2.3956,2.3939,2.395,2.3925,2.3938,2.3929,2.3925,2.3924,2.3921,2.3933,2.391,2.3875,2.387,2.3919,2.392,2.392,0,2.4056,2.4034,2.4014,2.4008,2.3994,2.3985,2.3979,2.3968,2.3959,2.3947,2.394,2.3926,2.3918,2.3907,2.3903,2.3912,2.3878,2.3889,2.3874,2.3874,2.3866,2.3867,2.3828,2.3863,2.3863,2.3864,2.3864,0,2.403,2.4013,2.4006,2.3994,2.3974,2.3972,2.3952,2.3947,2.3937,2.3923,2.3924,2.3911,2.3907,2.3893,2.389,2.3869,2.3866,2.3863,2.3862,2.3862,2.3862,2.3855,2.3856,2.3862,2.3863,2.3863,2.3863,0,2.4006,2.4001,2.3979,2.3967,2.3964,2.395,2.3939,2.3927,2.3922,2.3905,2.3901,2.3893,2.3876,2.3871,2.3852,2.3849,2.3824,2.3826,2.3828,2.3828,2.3812,2.3813,2.3767,2.376,2.3802,2.3801,2.3801,0,2.3989,2.3976,2.3962,2.3952,2.3945,2.3931,2.3921,2.3917,2.3907,2.3893,2.3882,2.3865,2.3852,2.3825,2.3818,2.3802,2.3802,2.3787,2.38,2.38,2.38,2.38,2.3798,2.3784,2.3784,2.3784,2.3783,0,2.3958,2.3956,2.3942,2.3926,2.3915,2.3903,2.3891,2.3883,2.3878,2.3866,2.3849,2.3839,2.3818,2.3801,2.3785,2.3778,2.3779,2.3779,2.3775,2.3774,2.3775,2.3772,2.382,2.378,2.3781,2.3781,2.3781,2.3781,2.3936,2.3924,2.3911,2.3895,2.3886,2.3875,2.3862,2.3855,2.3841,2.3823,2.3822,2.3803,2.3791,2.3769,2.3761,2.3746,2.375,2.3744,2.3742,2.374,2.3738,2.3778,2.3743,2.3743,2.3743,2.3743,2.3743,0,2.3904,2.3896,2.3881,2.3864,2.3851,2.3854,2.384,2.3829,2.3812,2.3801,2.3787,2.3766,2.3749,2.374,2.3723,2.3712,2.3712,2.3708,2.3708,2.3706,2.3736,2.3741,2.3708,2.3708,2.3708,2.3708,2.3708,2.3708,2.3886,2.3864,2.386,2.3833,2.3825,2.3806,2.3798,2.3787,2.3778,2.3754,2.374,2.3734,2.3723,2.3705,2.3689,2.3687,2.368,2.3675,2.3672,2.37,2.3704,2.3707,2.3712,2.3674,2.3674,2.3643,2.3643,2.3643]}]]